| time (UTC) | temp F | wind direction | speed MPH | gust MPH | rain 1hr in | rain 24hr in | rain mn in | humidity % | barometer mb |
| 20260503004551 | 57 | 360 | 5.0 | 9.0 | 0.10 | 0.42 | 0.13 | 95 | 1011.0 |
| 20260503003059 | 57 | 360 | 3.0 | 7.0 | 0.10 | 0.42 | 0.13 | 96 | 1011.0 |
| 20260503001547 | 57 | 360 | 3.0 | 7.0 | 0.08 | 0.40 | 0.11 | 95 | 1011.3 |
| 20260503000053 | 57 | 360 | 3.0 | 7.0 | 0.09 | 0.38 | 0.09 | 95 | 1011.9 |
| 20260502234545 | 57 | 360 | 1.0 | 6.0 | 0.03 | 0.32 | 0.03 | 95 | 1011.9 |
| 20260502233044 | 57 | 360 | 4.0 | 9.0 | 0.03 | 0.32 | 0.03 | 95 | 1011.5 |
| 20260502231541 | 57 | 360 | 3.0 | 9.0 | 0.04 | 0.32 | 0.03 | 95 | 1011.9 |
| 20260502230038 | 57 | 360 | 5.0 | 8.0 | 0.05 | 0.28 | 0.00 | 95 | 1012.1 |
| 20260502224537 | 57 | 360 | 3.0 | 7.0 | 0.14 | 0.28 | 0.28 | 94 | 1012.7 |
| 20260502223037 | 57 | 360 | 3.0 | 7.0 | 0.28 | 0.28 | 0.28 | 94 | 1012.8 |
| 20260502221535 | 58 | 360 | 5.0 | 11.0 | 0.28 | 0.28 | 0.28 | 94 | 1012.9 |
| 20260502220037 | 58 | 360 | 4.0 | 10.0 | 0.23 | 0.23 | 0.23 | 92 | 1013.2 |
| 20260502214535 | 58 | 360 | 8.0 | 18.0 | 0.14 | 0.14 | 0.14 | 89 | 1013.9 |
| 20260502213041 | 61 | 360 | 6.0 | 27.0 | 0.00 | 0.00 | 0.00 | 81 | 1014.0 |
| 20260502211531 | 64 | 360 | 1.0 | 3.0 | 0.00 | 0.00 | 0.00 | 72 | 1012.8 |
| 20260502210028 | 64 | 360 | 3.0 | 6.0 | 0.00 | 0.00 | 0.00 | 71 | 1012.1 |
| 20260502204528 | 64 | 360 | 0.0 | 9.0 | 0.00 | 0.00 | 0.00 | 71 | 1012.3 |
| 20260502203027 | 65 | 360 | 4.0 | 6.0 | 0.00 | 0.00 | 0.00 | 70 | 1012.2 |
| 20260502201528 | 66 | 360 | 5.0 | 10.0 | 0.00 | 0.00 | 0.00 | 68 | 1013.0 |
| 20260502200024 | 67 | 360 | 6.0 | 12.0 | 0.00 | 0.00 | 0.00 | 68 | 1012.6 |
| 20260502194523 | 67 | 360 | 3.0 | 7.0 | 0.00 | 0.00 | 0.00 | 68 | 1012.8 |
| 20260502193024 | 68 | 360 | 2.0 | 6.0 | 0.00 | 0.00 | 0.00 | 67 | 1012.8 |
| 20260502191524 | 69 | 360 | 1.0 | 5.0 | 0.00 | 0.00 | 0.00 | 66 | 1012.9 |
| 20260502190024 | 69 | 360 | 1.0 | 5.0 | 0.00 | 0.00 | 0.00 | 65 | 1012.9 |
| 20260502184525 | 70 | 360 | 1.0 | 6.0 | 0.00 | 0.00 | 0.00 | 64 | 1012.8 |
| 20260502183021 | 71 | 360 | 1.0 | 7.0 | 0.00 | 0.00 | 0.00 | 63 | 1013.0 |
| 20260502181520 | 72 | 168 | 4.0 | 8.0 | 0.00 | 0.00 | 0.00 | 61 | 1012.9 |
| 20260502163016 | 75 | 117 | 2.0 | 8.0 | 0.00 | 0.00 | 0.00 | 59 | 1013.5 |
| 20260502161510 | 76 | 83 | 0.0 | 7.0 | 0.00 | 0.00 | 0.00 | 58 | 1013.7 |
| 20260502151501 | 75 | 64 | 0.0 | 4.0 | 0.00 | 0.00 | 0.00 | 60 | 1014.6 |
| 20260502123044 | 73 | 31 | 4.0 | 11.0 | 0.00 | 0.00 | 0.00 | 62 | 1016.2 |
| 20260502121541 | 72 | 301 | 6.0 | 11.0 | 0.00 | 0.00 | 0.00 | 64 | 1016.4 |
| 20260502114541 | 71 | 86 | 7.0 | 13.0 | 0.00 | 0.00 | 0.00 | 64 | 1016.6 |
| 20260502113039 | 71 | 22 | 4.0 | 12.0 | 0.00 | 0.00 | 0.00 | 64 | 1016.6 |
| 20260502111536 | 72 | 107 | 3.0 | 9.0 | 0.00 | 0.00 | 0.00 | 62 | 1016.9 |
| 20260502110033 | 71 | 93 | 1.0 | 10.0 | 0.00 | 0.00 | 0.00 | 63 | 1016.8 |
| 20260502104535 | 70 | 34 | 3.0 | 8.0 | 0.00 | 0.00 | 0.00 | 64 | 1017.0 |
| 20260502103028 | 69 | 360 | 4.0 | 7.0 | 0.00 | 0.00 | 0.00 | 66 | 1017.1 |
| 20260502101534 | 69 | 28 | 2.0 | 9.0 | 0.00 | 0.00 | 0.00 | 66 | 1017.3 |
| 20260502091521 | 68 | 59 | 1.0 | 8.0 | 0.00 | 0.00 | 0.00 | 67 | 1017.6 |
| 20260502070057 | 57 | 360 | 1.0 | 7.0 | 0.00 | 0.00 | 0.00 | 66 | 1017.8 |
| 20260502064601 | 57 | 360 | 4.0 | 7.0 | 0.00 | 0.00 | 0.00 | 65 | 1017.8 |
| 20260502063054 | 57 | 360 | 1.0 | 5.0 | 0.00 | 0.00 | 0.00 | 63 | 1017.6 |
| 20260502061553 | 57 | 360 | 1.0 | 3.0 | 0.00 | 0.00 | 0.00 | 63 | 1017.8 |
| 20260502060152 | 56 | 360 | 3.0 | 7.0 | 0.00 | 0.00 | 0.00 | 62 | 1017.8 |
| 20260502054557 | 55 | 360 | 2.0 | 5.0 | 0.00 | 0.00 | 0.00 | 67 | 1017.8 |
| 20260502053050 | 53 | 360 | 0.0 | 4.0 | 0.00 | 0.00 | 0.00 | 71 | 1017.6 |
| 20260502051548 | 52 | 360 | 1.0 | 4.0 | 0.00 | 0.00 | 0.00 | 71 | 1017.6 |
| 20260502050047 | 52 | 360 | 1.0 | 4.0 | 0.00 | 0.00 | 0.00 | 71 | 1017.4 |
| 20260502044544 | 51 | 360 | 0.0 | 0.0 | 0.00 | 0.00 | 0.00 | 71 | 1017.3 |
| 20260502043046 | 51 | 360 | 2.0 | 4.0 | 0.00 | 0.00 | 0.00 | 70 | 1017.5 |
| 20260502041538 | 51 | 360 | 3.0 | 6.0 | 0.00 | 0.00 | 0.00 | 70 | 1017.4 |
| 20260502040048 | 51 | 360 | 1.0 | 3.0 | 0.00 | 0.00 | 0.00 | 69 | 1017.4 |
| 20260502034535 | 51 | 360 | 1.0 | 2.0 | 0.00 | 0.00 | 0.00 | 71 | 1017.7 |
| 20260502033033 | 52 | 360 | 1.0 | 4.0 | 0.00 | 0.00 | 0.00 | 69 | 1017.8 |
| 20260502031531 | 52 | 360 | 1.0 | 4.0 | 0.00 | 0.00 | 0.00 | 68 | 1017.8 |
| 20260502030031 | 52 | 360 | 1.0 | 3.0 | 0.00 | 0.00 | 0.00 | 69 | 1017.7 |
| 20260502024530 | 52 | 360 | 0.0 | 2.0 | 0.00 | 0.00 | 0.00 | 67 | 1017.9 |
| 20260502023027 | 53 | 360 | 1.0 | 3.0 | 0.00 | 0.00 | 0.00 | 68 | 1018.1 |
| 20260502021525 | 52 | 360 | 1.0 | 3.0 | 0.00 | 0.00 | 0.00 | 69 | 1018.2 |
| 20260502020024 | 53 | 360 | 1.0 | 4.0 | 0.00 | 0.00 | 0.00 | 68 | 1018.4 |
| 20260502014538 | 53 | 360 | 0.0 | 0.0 | 0.00 | 0.00 | 0.00 | 67 | 1018.4 |
| 20260502013020 | 54 | 360 | 0.0 | 0.0 | 0.00 | 0.00 | 0.00 | 66 | 1018.5 |
| 20260502011518 | 54 | 360 | 0.0 | 0.0 | 0.00 | 0.00 | 0.00 | 65 | 1018.6 |
| 20260502010016 | 54 | 360 | 0.0 | 0.0 | 0.00 | 0.00 | 0.00 | 64 | 1018.6 |